This is the latest recevied weather packets stored in our database for station/object IK2CHZ-3. If no packets are shown the sender has not sent any weather packets the latest 10 day(s).
| Time | Temp. | Humidity | Pressure | Rain* | Wind** | Luminosity | Snow |
|---|---|---|---|---|---|---|---|
| 1778061679 | 15.56° C | 92% | 1008.8 hPa | 2.79 mm | - | - | - |
| 1778061020 | 15° C | 92% | 1008.7 hPa | 5.08 mm | - | - | - |
| 1778060358 | 15° C | 92% | 1008.5 hPa | 5.59 mm | - | - | - |
| 1778059699 | 15° C | 92% | 1008.7 hPa | 5.08 mm | - | - | - |
| 1778059040 | 14.44° C | 92% | 1008.9 hPa | 4.57 mm | - | - | - |
| 1778058379 | 14.44° C | 92% | 1009.5 hPa | 5.08 mm | - | - | - |
| 1778057720 | 14.44° C | 92% | 1009.6 hPa | 2.79 mm | - | - | - |
| 1778057059 | 14.44° C | 92% | 1009 hPa | 1.78 mm | - | - | - |
| 1778056399 | 14.44° C | 92% | 1008.8 hPa | 1.27 mm | - | - | - |
| 1778055738 | 14.44° C | 92% | 1008.7 hPa | 1.02 mm | - | - | - |
| 1778055079 | 14.44° C | 92% | 1008.6 hPa | 0.51 mm | - | - | - |
| 1778054419 | 14.44° C | 92% | 1009 hPa | 0.25 mm | - | - | - |
| 1778053758 | 14.44° C | 92% | 1008.9 hPa | 0.25 mm | - | - | - |
| 1778053335 | 14.44° C | 92% | 1009 hPa | 0.51 mm | - | - | - |
| 1778051466 | 13.89° C | 92% | 1008.9 hPa | 0.51 mm | - | - | - |
| 1778050807 | 13.89° C | 92% | 1008.9 hPa | 0.51 mm | - | - | - |
| 1778050145 | 13.89° C | 92% | 1009.1 hPa | 0.25 mm | - | - | - |
| 1778015826 | 14.44° C | 90% | 1012.7 hPa | 0.51 mm | - | - | - |
| 1778015167 | 14.44° C | 90% | 1012.8 hPa | 1.27 mm | - | - | - |
| 1778014506 | 14.44° C | 90% | 1012.8 hPa | 1.52 mm | - | - | - |
| 1778013847 | 14.44° C | 90% | 1012.6 hPa | 3.05 mm | - | - | - |
| 1778013186 | 15° C | 90% | 1012.7 hPa | 3.05 mm | - | - | - |
| 1778012526 | 15° C | 89% | 1012.9 hPa | 2.54 mm | - | - | - |
| 1778011867 | 15° C | 88% | 1012.9 hPa | 2.29 mm | - | - | - |
| 1778011206 | 15.56° C | 87% | 1012.7 hPa | 1.78 mm | - | - | - |
* Rain latest hour (hover to see other rain measurements)
** Current wind speed in m/s (hover to see current wind gust speed)